Wright-Patt AFB, OH

2:55 PM EDT on July 24, 2017 (GMT -0400)
Wright-Patterson Air Force Base

Weather History for KFFO - December, 2014

Change the Weather History Date:

Sunday, December 21, 2014

  Actual Average Record
Temperature  
Mean Temperature 29 °F -  
Max Temperature 37 °F 35 °F 66 °F (2013)
Min Temperature 21 °F 20 °F 1 °F (2008)
Degree Days  
Heating Degree Days 36    
Moisture  
Dew Point 22 °F    
Average Humidity 81    
Maximum Humidity 93    
Minimum Humidity 61    
Precipitation  
Precipitation 0.00 in - - ()
Sea Level Pressure  
Sea Level Pressure 30.29 in    
Wind  
Wind Speed 1 mph (East)    
Max Wind Speed 9 mph    
Max Gust Speed -    
Visibility 8 miles    
Events Fog    
Averages and records for this station are not official NWS values.
T = Trace of Precipitation, MM = Missing Value Source: NWS Daily Summary

Daily Weather History Graph

Daily Weather History Graph

Search for Another Location

Airport or City:

Trip Planner

Search our weather history database for the weather conditions in past years. The results will help you decide how hot, cold, wet, or windy it might be!

Date:

Astronomy

Dec. 21, 2014 Rise Set
Actual Time 7:53 AM EST 5:14 PM EST
Civil Twilight 7:23 AM EST 5:45 PM EST
Nautical Twilight 6:49 AM EST 6:19 PM EST
Astronomical Twilight 6:16 AM EST 6:52 PM EST
Moon 7:09 AM EST (12/21) 5:20 PM EST (12/21)
Length of Visible Light 10h 21m
Length of Day
9h 20m
Waning Crescent, 0% of the Moon is Illuminated
Dec 21
Waning Crescent
Dec 21
New
Dec 28
First Quarter
Jan 4
Full
Jan 13
Last Quarter

Hourly Weather History & Observations

Time (EST) Temp. Windchill Dew Point Humidity Pressure Visibility Wind Dir Wind Speed Gust Speed Precip Events Conditions
12:58 AM 28.6 °F - 24.6 °F 85% 30.33 in 10.0 mi Calm Calm - N/A   Overcast
1:58 AM 28.9 °F - 25.2 °F 86% 30.33 in 10.0 mi Calm Calm - N/A   Overcast
2:58 AM 29.1 °F - 25.2 °F 85% 30.34 in 10.0 mi Calm Calm - N/A   Overcast
3:58 AM 29.3 °F - 21.6 °F 73% 30.34 in 10.0 mi Calm Calm - N/A   Overcast
4:08 AM 28.4 °F - 21.2 °F 74% 30.29 in 10.0 mi Calm Calm - N/A   Scattered Clouds
4:58 AM 24.6 °F - 20.3 °F 84% 30.33 in 10.0 mi Calm Calm - N/A   Clear
5:28 AM 23.0 °F - 21.2 °F 93% 30.30 in 6.0 mi Calm Calm - N/A   Clear
5:38 AM 23.0 °F - 21.2 °F 93% 30.30 in 5.0 mi Calm Calm - N/A   Clear
5:58 AM 22.6 °F - 19.2 °F 87% 30.34 in 1.8 mi Calm Calm - N/A   Clear
6:08 AM 23.0 °F - 19.4 °F 86% 30.30 in 4.0 mi West 1.2 mph - N/A   Clear
6:28 AM 23.0 °F - 19.4 °F 86% 30.31 in 10.0 mi Calm Calm - N/A   Clear
6:48 AM 21.2 °F - 17.6 °F 86% 30.31 in 1.8 mi Calm Calm - N/A   Clear
6:58 AM 21.2 °F - 19.4 °F 93% 30.37 in 2.5 mi Calm Calm - N/A   Clear
7:08 AM 21.2 °F - 17.6 °F 86% 30.32 in 4.0 mi Calm Calm - N/A   Mist
7:38 AM 21.2 °F - 17.6 °F 86% 30.32 in 3.0 mi Calm Calm - N/A   Clear
7:58 AM 21.4 °F - 19.2 °F 91% 30.35 in 4.0 mi Calm Calm - N/A   Clear
8:38 AM 21.2 °F - 17.6 °F 86% 30.31 in 7.0 mi NNE 2.3 mph - N/A Fog Patches of Fog
8:58 AM 21.7 °F - 19.0 °F 89% 30.35 in 6.0 mi Calm Calm - N/A   Clear
9:58 AM 28.0 °F - 23.2 °F 82% 30.36 in 7.0 mi ENE 1.2 mph - N/A   Partly Cloudy
10:58 AM 32.4 °F 26.0 °F 23.4 °F 69% 30.35 in 7.0 mi East 6.9 mph - N/A   Scattered Clouds
11:58 AM 34.5 °F 28.6 °F 23.4 °F 64% 30.32 in 7.0 mi ESE 6.9 mph - N/A   Scattered Clouds
12:58 PM 36.0 °F 29.0 °F 24.4 °F 63% 30.28 in 10.0 mi ESE 9.2 mph - N/A   Mostly Cloudy
1:58 PM 37.4 °F 31.4 °F 25.0 °F 61% 30.25 in 7.0 mi SSE 8.1 mph - N/A   Mostly Cloudy
2:58 PM 37.2 °F 31.2 °F 25.7 °F 63% 30.24 in 10.0 mi SE 8.1 mph - N/A   Mostly Cloudy
3:58 PM 36.9 °F 33.1 °F 25.9 °F 64% 30.22 in 10.0 mi ESE 4.6 mph - N/A   Mostly Cloudy
4:58 PM 35.4 °F 30.5 °F 26.2 °F 69% 30.22 in 10.0 mi East 5.8 mph - N/A   Clear
5:58 PM 32.2 °F 26.7 °F 25.2 °F 75% 30.23 in 10.0 mi East 5.8 mph - N/A   Clear
6:58 PM 30.4 °F 25.6 °F 24.4 °F 79% 30.22 in 10.0 mi ENE 4.6 mph - N/A   Clear
7:58 PM 29.7 °F 26.1 °F 24.4 °F 81% 30.22 in 10.0 mi East 3.5 mph - N/A   Clear
8:58 PM 28.4 °F - 23.9 °F 83% 30.22 in 10.0 mi ENE 2.3 mph - N/A   Clear
9:58 PM 27.0 °F 23.0 °F 23.0 °F 85% 30.19 in 10.0 mi ENE 3.5 mph - N/A   Clear
10:58 PM 26.4 °F - 22.3 °F 84% 30.18 in 10.0 mi NNE 2.3 mph - N/A   Clear
11:58 PM 25.2 °F 20.9 °F 22.1 °F 88% 30.17 in 10.0 mi ENE 3.5 mph - N/A   Clear